Find CICERO-3

NORAD ID: 42849 Int'l Des: NNA 2017-042 Owner: GEOOPT Country: US operational
LEOCIRCULARRETROGRADESSO

現在のビュー

3D地球を読み込み中...

About CICERO-3

CICERO-3 (NORAD 42849) is a satellite launched Jul 14, 2017 by GEOOPT of US. It operates in LEO, CIRCULAR, RETROGRADE, SSO orbit with a mass of 10.00 kg.

次回通過

Passes for default location (London). Set your location on the main map for personalized predictions.

高度履歴

Loading altitude history...

軌道要素

1 42849U 17042AA 26194.92423563 .00001861 00000-0 12504-3 0 9998
2 42849 97.4272 359.7780 0011172 20.1827 339.9841 15.07924196491242
Epoch: Jul 13, 2026 • Age: 12 hours

現在のステータス

高度 554.7 km
遠地点 / 近地点 N/A
速度 7.59 km/s
衛星直下点 72.13°N, 124.68°E
打ち上げ日 Jul 14, 2017
運用期間 8.9 years
タイプ other

技術仕様

分類 Payload
質量 10.00 kg
乾燥質量 10.00 kg
総質量 10.00 kg
長さ 0.30 m
直径 0.20 m
スパン 0.60 m
形状 Box+2 pan
製造者 TYVAK
バスタイプ Cubesat 6U
フェーズステータス In Orbit
所有者/国 GEOOPT/US

Most Searched